Nuiqsut, AK

11:16 AM AKDT on July 28, 2017 (GMT -0800)
Nuiqsut

Weather History for PAQT - April, 2013

Change the Weather History Date:

Saturday, April 27, 2013

  Actual Average (PAKU) Record (PAKU)
Temperature  
Mean Temperature 6 °F -  
Max Temperature 14 °F 13 °F 35 °F (2002)
Min Temperature 1 °F 2 °F -15 °F (1992)
Degree Days  
Heating Degree Days 58    
Moisture  
Dew Point 4 °F    
Average Humidity 88    
Maximum Humidity 96    
Minimum Humidity 79    
Precipitation  
Precipitation 0.00 in - - ()
Sea Level Pressure  
Sea Level Pressure 30.22 in    
Wind  
Wind Speed 10 mph (SW)    
Max Wind Speed 21 mph    
Max Gust Speed -    
Visibility 6 miles    
Events Snow    
Averages and records for this station are not official NWS values.
T = Trace of Precipitation, MM = Missing Value Source: NWS Daily Summary

Daily Weather History Graph

Daily Weather History Graph

Search for Another Location

Airport or City:

Trip Planner

Search our weather history database for the weather conditions in past years. The results will help you decide how hot, cold, wet, or windy it might be!

Date:

Astronomy

Apr. 27, 2013 Rise Set
Actual Time 4:51 AM AKDT 11:15 PM AKDT
Civil Twilight 2:34 AM AKDT 1:29 AM AKDT
Nautical Twilight Sun does not set Sun does not set
Astronomical Twilight Sun does not set Sun does not set
Moon 2:29 AM AKDT (4/27) 4:30 AM AKDT (4/27)
Length of Visible Light 22h 54m
Length of Day
18h 23m
Waning Gibbous, 94% of the Moon is Illuminated
Apr 27
Waning Gibbous
May 2
Last Quarter
May 9
New
May 17
First Quarter
May 24
Full

Hourly Weather History & Observations

Time (AKDT) Temp. Windchill Dew Point Humidity Pressure Visibility Wind Dir Wind Speed Gust Speed Precip Events Conditions
12:04 AM 1.4 °F -12.5 °F -0.4 °F 92% 30.12 in 10.0 mi ENE 8.1 mph - 0.00 in   Overcast
12:53 AM 1.0 °F -14.0 °F -0.9 °F 91% 30.16 in 10.0 mi ENE 9.2 mph - 0.00 in   Overcast
1:27 AM 1.4 °F -8.3 °F -0.4 °F 92% 30.17 in 10.0 mi ENE 4.6 mph - 0.00 in   Overcast
1:34 AM 1.4 °F -8.3 °F -0.4 °F 92% 30.17 in 10.0 mi East 4.6 mph - 0.00 in   Overcast
1:53 AM 1.9 °F - -0.0 °F 91% 30.19 in 10.0 mi Calm Calm - 0.00 in   Overcast
2:53 AM 3.0 °F - 1.0 °F 91% 30.21 in 10.0 mi Calm Calm - 0.00 in   Overcast
3:12 AM 3.2 °F - -0.4 °F 85% 30.21 in 2.5 mi Calm Calm - 0.00 in Snow Light Snow
3:23 AM 1.4 °F - -0.4 °F 92% 30.21 in 1.8 mi Calm Calm - 0.00 in Snow Light Snow
3:26 AM 1.4 °F - -0.4 °F 92% 30.21 in 2.0 mi Calm Calm - 0.00 in Snow Light Snow
3:34 AM 1.4 °F - -2.2 °F 85% 30.21 in 3.0 mi Calm Calm - 0.00 in Snow Light Snow
3:44 AM 1.4 °F - -0.4 °F 92% 30.22 in 6.0 mi Calm Calm - 0.00 in   Overcast
3:53 AM 1.9 °F - -0.9 °F 88% 30.22 in 9.0 mi Calm Calm - 0.00 in   Overcast
4:53 AM 1.9 °F - 1.0 °F 96% 30.24 in 10.0 mi Calm Calm - 0.00 in   Overcast
5:53 AM 1.9 °F -7.6 °F -0.0 °F 91% 30.26 in 10.0 mi WSW 4.6 mph - 0.00 in   Overcast
6:53 AM 1.9 °F -9.2 °F -0.0 °F 91% 30.27 in 10.0 mi SSW 5.8 mph - 0.00 in   Overcast
7:53 AM 3.0 °F -10.5 °F 1.0 °F 91% 30.27 in 10.0 mi SSW 8.1 mph - 0.00 in   Overcast
8:53 AM 3.0 °F -14.1 °F -0.0 °F 87% 30.27 in 10.0 mi SW 12.7 mph - 0.00 in   Overcast
9:53 AM 3.0 °F -14.1 °F 1.0 °F 91% 30.28 in 10.0 mi SW 12.7 mph - 0.00 in   Overcast
10:20 AM 3.2 °F -14.6 °F 1.4 °F 92% 30.28 in 2.0 mi WSW 13.8 mph - 0.00 in Snow Light Snow
10:32 AM 3.2 °F -14.6 °F -0.4 °F 85% 30.28 in 3.0 mi WSW 13.8 mph - 0.00 in Snow Light Snow
10:53 AM 1.9 °F -15.5 °F -0.0 °F 91% 30.28 in 5.0 mi SW 12.7 mph - 0.00 in Snow Light Snow
11:53 AM 3.0 °F -15.5 °F -0.9 °F 84% 30.28 in 8.0 mi SW 15.0 mph - 0.00 in   Overcast
12:53 PM 3.9 °F -15.6 °F -0.0 °F 84% 30.27 in 9.0 mi SW 17.3 mph - N/A   Overcast
1:35 PM 5.0 °F -13.6 °F 1.4 °F 85% 30.27 in 6.0 mi SW 16.1 mph - N/A Snow Blowing Snow
1:49 PM 6.8 °F -11.3 °F 1.4 °F 79% 30.26 in 10.0 mi SW 16.1 mph - N/A   Overcast
1:53 PM 6.1 °F -12.2 °F 1.9 °F 83% 30.27 in 10.0 mi SW 16.1 mph - N/A   Overcast
2:33 PM 6.8 °F -11.3 °F 3.2 °F 85% 30.26 in 7.0 mi SW 16.1 mph - N/A   Overcast
2:48 PM 8.6 °F -9.5 °F 3.2 °F 79% 30.25 in 10.0 mi SW 17.3 mph - N/A   Overcast
2:53 PM 8.1 °F -9.6 °F 3.9 °F 83% 30.26 in 10.0 mi SW 16.1 mph - N/A   Overcast
3:24 PM 8.6 °F -9.5 °F 5.0 °F 85% 30.24 in 4.0 mi SW 17.3 mph - 0.00 in Snow Light Snow
3:53 PM 9.0 °F -9.0 °F 6.1 °F 88% 30.25 in 5.0 mi SW 17.3 mph - 0.00 in Snow Light Snow
4:21 PM 10.4 °F -8.2 °F 6.8 °F 85% 30.23 in 3.0 mi SW 19.6 mph - 0.00 in Snow Light Snow
4:44 PM 10.4 °F -8.2 °F 6.8 °F 85% 30.23 in 6.0 mi WSW 19.6 mph - 0.00 in Snow Light Snow
4:53 PM 10.9 °F -7.5 °F 7.0 °F 84% 30.23 in 5.0 mi SW 19.6 mph - 0.00 in Snow Light Snow
5:14 PM 10.4 °F -7.7 °F 6.8 °F 85% 30.22 in 2.5 mi SW 18.4 mph - 0.00 in Snow Light Snow
5:19 PM 10.4 °F -8.6 °F 6.8 °F 85% 30.22 in 3.0 mi WSW 20.7 mph - 0.00 in Snow Light Snow
5:53 PM 10.9 °F -6.5 °F 7.0 °F 84% 30.22 in 7.0 mi WSW 17.3 mph - 0.00 in Snow Light Snow
6:53 PM 10.9 °F -7.0 °F 7.0 °F 84% 30.22 in 5.0 mi WSW 18.4 mph - 0.00 in Snow Light Snow
7:53 PM 10.9 °F -6.5 °F 8.1 °F 88% 30.20 in 2.5 mi WSW 17.3 mph - 0.00 in Snow Light Snow
8:05 PM 10.4 °F -6.6 °F 8.6 °F 92% 30.19 in 4.0 mi WSW 16.1 mph - 0.00 in Snow Light Snow
8:53 PM 10.9 °F -5.9 °F 9.0 °F 92% 30.18 in 3.0 mi WSW 16.1 mph - 0.00 in Snow Light Snow
9:03 PM 10.4 °F -7.2 °F 8.6 °F 92% 30.17 in 1.8 mi WSW 17.3 mph - 0.00 in Snow Light Snow
9:23 PM 10.4 °F -7.2 °F 8.6 °F 92% 30.17 in 1.8 mi WSW 17.3 mph - 0.00 in Snow Light Snow
9:53 PM 12.0 °F -4.5 °F 9.0 °F 88% 30.17 in 3.0 mi WSW 16.1 mph - 0.00 in Snow Light Snow
10:00 PM 12.2 °F -4.3 °F 10.4 °F 92% 30.16 in 2.0 mi WSW 16.1 mph - 0.00 in Snow Light Snow
10:09 PM 12.2 °F -4.8 °F 10.4 °F 92% 30.15 in 1.2 mi WSW 17.3 mph - 0.00 in Snow Light Snow
10:53 PM 12.0 °F -5.6 °F 10.0 °F 92% 30.15 in 1.5 mi WSW 18.4 mph - 0.00 in Snow Light Snow
11:36 PM 12.2 °F -4.8 °F 10.4 °F 92% 30.14 in 1.8 mi WSW 17.3 mph - 0.00 in Snow Light Snow
11:43 PM 12.2 °F -4.8 °F 10.4 °F 92% 30.13 in 1.8 mi WSW 17.3 mph - 0.00 in Snow Light Snow
11:53 PM 12.9 °F -4.4 °F 12.0 °F 96% 30.14 in 2.5 mi WSW 18.4 mph - 0.00 in Snow Light Snow